| time (UTC) | temp F | wind direction | speed MPH | gust MPH | rain 1hr in | rain 24hr in | rain mn in | humidity % | barometer mb |
| 20260905043005 | 51 | 274 | 0.0 | 2.0 | 0.00 | 0.00 | 0.00 | 88 | 1021.2 |
| 20260905042004 | 52 | 275 | 0.0 | 3.0 | 0.00 | 0.00 | 0.00 | 88 | 1021.1 |
| 20260905041504 | 52 | 278 | 1.0 | 3.0 | 0.00 | 0.00 | 0.00 | 88 | 1021.1 |
| 20260905041005 | 52 | 266 | 2.0 | 6.0 | 0.00 | 0.00 | 0.00 | 88 | 1021.1 |
| 20260905040504 | 52 | 264 | 2.0 | 6.0 | 0.00 | 0.00 | 0.00 | 88 | 1021.0 |
| 20260905040005 | 52 | 267 | 2.0 | 6.0 | 0.00 | 0.00 | 0.00 | 88 | 1020.9 |
| 20260905035504 | 52 | 257 | 2.0 | 6.0 | 0.00 | 0.00 | 0.00 | 88 | 1020.9 |
| 20260905035005 | 52 | 258 | 2.0 | 4.0 | 0.00 | 0.00 | 0.00 | 87 | 1020.9 |
| 20260905034504 | 52 | 260 | 2.0 | 4.0 | 0.00 | 0.00 | 0.00 | 87 | 1021.0 |
| 20260905034006 | 53 | 258 | 1.0 | 4.0 | 0.00 | 0.00 | 0.00 | 87 | 1020.9 |
| 20260905033504 | 53 | 258 | 1.0 | 4.0 | 0.00 | 0.00 | 0.00 | 87 | 1021.0 |
| 20260905033005 | 53 | 263 | 1.0 | 3.0 | 0.00 | 0.00 | 0.00 | 87 | 1021.0 |
| 20260905032504 | 53 | 271 | 2.0 | 3.0 | 0.00 | 0.00 | 0.00 | 87 | 1020.9 |
| 20260905032006 | 53 | 274 | 2.0 | 6.0 | 0.00 | 0.00 | 0.00 | 87 | 1020.9 |
| 20260905031504 | 53 | 270 | 3.0 | 6.0 | 0.00 | 0.00 | 0.00 | 86 | 1020.8 |
| 20260905031005 | 53 | 270 | 3.0 | 9.0 | 0.00 | 0.00 | 0.00 | 86 | 1020.8 |
| 20260905030505 | 53 | 269 | 3.0 | 9.0 | 0.00 | 0.00 | 0.00 | 87 | 1020.9 |
| 20260905030006 | 53 | 265 | 3.0 | 8.0 | 0.00 | 0.00 | 0.00 | 87 | 1020.8 |
| 20260905025504 | 53 | 264 | 2.0 | 8.0 | 0.00 | 0.00 | 0.00 | 88 | 1020.6 |
| 20260905024005 | 53 | 265 | 1.0 | 3.0 | 0.00 | 0.00 | 0.00 | 88 | 1020.7 |
| 20260905023504 | 52 | 264 | 1.0 | 3.0 | 0.00 | 0.00 | 0.00 | 88 | 1020.7 |
| 20260905023005 | 52 | 264 | 1.0 | 3.0 | 0.00 | 0.00 | 0.00 | 88 | 1020.8 |
| 20260905022504 | 52 | 263 | 1.0 | 3.0 | 0.00 | 0.00 | 0.00 | 88 | 1020.7 |
| 20260905021005 | 52 | 256 | 2.0 | 4.0 | 0.00 | 0.00 | 0.00 | 87 | 1020.5 |
| 20260905020504 | 52 | 259 | 2.0 | 4.0 | 0.00 | 0.00 | 0.00 | 87 | 1020.4 |
| 20260905020005 | 52 | 252 | 2.0 | 6.0 | 0.00 | 0.00 | 0.00 | 87 | 1020.3 |
| 20260905015504 | 52 | 245 | 2.0 | 6.0 | 0.00 | 0.00 | 0.00 | 87 | 1020.4 |
| 20260905015006 | 52 | 246 | 2.0 | 4.0 | 0.00 | 0.00 | 0.00 | 87 | 1020.4 |
| 20260905014005 | 53 | 244 | 2.0 | 3.0 | 0.00 | 0.00 | 0.00 | 86 | 1020.4 |
| 20260905013503 | 53 | 243 | 2.0 | 4.0 | 0.00 | 0.00 | 0.00 | 86 | 1020.4 |
| 20260905013004 | 53 | 261 | 2.0 | 4.0 | 0.00 | 0.00 | 0.00 | 86 | 1020.3 |
| 20260905012504 | 53 | 268 | 2.0 | 7.0 | 0.00 | 0.00 | 0.00 | 85 | 1020.3 |
| 20260905012005 | 53 | 253 | 2.0 | 7.0 | 0.00 | 0.00 | 0.00 | 86 | 1020.4 |
| 20260905011504 | 53 | 249 | 2.0 | 7.0 | 0.00 | 0.00 | 0.00 | 85 | 1020.4 |
| 20260905011005 | 53 | 257 | 2.0 | 7.0 | 0.00 | 0.00 | 0.00 | 85 | 1020.4 |
| 20260905010504 | 53 | 258 | 2.0 | 6.0 | 0.00 | 0.00 | 0.00 | 85 | 1020.4 |
| 20260905010004 | 53 | 257 | 2.0 | 7.0 | 0.00 | 0.00 | 0.00 | 85 | 1020.4 |
| 20260905005503 | 53 | 260 | 3.0 | 7.0 | 0.00 | 0.00 | 0.00 | 85 | 1020.3 |
| 20260905005005 | 53 | 256 | 2.0 | 6.0 | 0.00 | 0.00 | 0.00 | 85 | 1020.3 |
| 20260905004504 | 53 | 242 | 2.0 | 5.0 | 0.00 | 0.00 | 0.00 | 86 | 1020.4 |
| 20260905004005 | 53 | 233 | 2.0 | 5.0 | 0.00 | 0.00 | 0.00 | 86 | 1020.3 |
| 20260905003005 | 52 | 238 | 1.0 | 6.0 | 0.00 | 0.00 | 0.00 | 87 | 1020.2 |
| 20260905002504 | 52 | 238 | 2.0 | 6.0 | 0.00 | 0.00 | 0.00 | 87 | 1020.2 |
| 20260905002005 | 52 | 244 | 2.0 | 4.0 | 0.00 | 0.00 | 0.00 | 87 | 1020.2 |
| 20260905001504 | 52 | 248 | 2.0 | 7.0 | 0.00 | 0.00 | 0.00 | 87 | 1020.3 |
| 20260905001006 | 52 | 244 | 2.0 | 7.0 | 0.00 | 0.00 | 0.00 | 86 | 1020.2 |
| 20260905000504 | 52 | 260 | 2.0 | 4.0 | 0.00 | 0.00 | 0.00 | 86 | 1020.2 |
| 20260905000005 | 52 | 273 | 2.0 | 3.0 | 0.00 | 0.00 | 0.00 | 86 | 1020.1 |
| 20260904235504 | 53 | 270 | 1.0 | 3.0 | 0.00 | 0.00 | 0.00 | 85 | 1020.2 |
| 20260904235004 | 53 | 265 | 1.0 | 3.0 | 0.00 | 0.00 | 0.00 | 85 | 1020.2 |
| 20260904234504 | 53 | 267 | 1.0 | 3.0 | 0.00 | 0.00 | 0.00 | 86 | 1020.1 |
| 20260904234004 | 52 | 268 | 2.0 | 6.0 | 0.00 | 0.00 | 0.00 | 86 | 1020.0 |
| 20260904233503 | 53 | 262 | 1.0 | 6.0 | 0.00 | 0.00 | 0.00 | 86 | 1020.0 |
| 20260904233005 | 52 | 239 | 2.0 | 4.0 | 0.00 | 0.00 | 0.00 | 86 | 1019.9 |
| 20260904232004 | 52 | 217 | 1.0 | 4.0 | 0.00 | 0.00 | 0.00 | 86 | 1019.9 |
| 20260904231005 | 53 | 242 | 2.0 | 5.0 | 0.00 | 0.00 | 0.00 | 86 | 1019.8 |
| 20260904230005 | 53 | 240 | 2.0 | 4.0 | 0.00 | 0.00 | 0.00 | 85 | 1019.6 |
| 20260904225503 | 53 | 233 | 2.0 | 5.0 | 0.00 | 0.00 | 0.00 | 86 | 1019.7 |
| 20260904225004 | 53 | 245 | 2.0 | 7.0 | 0.00 | 0.00 | 0.00 | 86 | 1019.6 |
| 20260904224504 | 53 | 257 | 2.0 | 7.0 | 0.00 | 0.00 | 0.00 | 85 | 1019.6 |
| 20260904224004 | 53 | 243 | 2.0 | 4.0 | 0.00 | 0.00 | 0.00 | 85 | 1019.6 |
| 20260904223005 | 54 | 257 | 2.0 | 6.0 | 0.00 | 0.00 | 0.00 | 84 | 1019.5 |
| 20260904222503 | 54 | 262 | 3.0 | 6.0 | 0.00 | 0.00 | 0.00 | 84 | 1019.4 |
| 20260904222004 | 54 | 269 | 3.0 | 7.0 | 0.00 | 0.00 | 0.00 | 83 | 1019.5 |
| 20260904221503 | 54 | 272 | 4.0 | 10.0 | 0.00 | 0.00 | 0.00 | 83 | 1019.4 |
| 20260904221004 | 54 | 270 | 4.0 | 10.0 | 0.00 | 0.00 | 0.00 | 83 | 1019.4 |
| 20260904220004 | 55 | 270 | 3.0 | 8.0 | 0.00 | 0.00 | 0.00 | 83 | 1019.5 |
| 20260904215505 | 55 | 267 | 2.0 | 6.0 | 0.00 | 0.00 | 0.00 | 83 | 1019.5 |
| 20260904215006 | 55 | 264 | 2.0 | 5.0 | 0.00 | 0.00 | 0.00 | 83 | 1019.5 |
| 20260904214007 | 56 | 261 | 2.0 | 7.0 | 0.00 | 0.00 | 0.00 | 82 | 1019.5 |
| 20260904213506 | 56 | 262 | 2.0 | 10.0 | 0.00 | 0.00 | 0.00 | 82 | 1019.5 |
| 20260904213007 | 56 | 264 | 4.0 | 10.0 | 0.00 | 0.00 | 0.00 | 81 | 1019.6 |
| 20260904212505 | 56 | 263 | 4.0 | 9.0 | 0.00 | 0.00 | 0.00 | 81 | 1019.6 |
| 20260904211506 | 56 | 268 | 3.0 | 8.0 | 0.00 | 0.00 | 0.00 | 82 | 1019.7 |
| 20260904211006 | 56 | 267 | 3.0 | 9.0 | 0.00 | 0.00 | 0.00 | 82 | 1019.6 |
| 20260904210006 | 56 | 269 | 4.0 | 11.0 | 0.00 | 0.00 | 0.00 | 81 | 1019.6 |
| 20260904205506 | 56 | 270 | 4.0 | 11.0 | 0.00 | 0.00 | 0.00 | 81 | 1019.5 |
| 20260904205006 | 56 | 270 | 5.0 | 13.0 | 0.00 | 0.00 | 0.00 | 81 | 1019.5 |
| 20260904204506 | 56 | 270 | 5.0 | 13.0 | 0.00 | 0.00 | 0.00 | 80 | 1019.6 |
| 20260904204007 | 56 | 267 | 3.0 | 8.0 | 0.00 | 0.00 | 0.00 | 81 | 1019.5 |
| 20260904203006 | 56 | 264 | 4.0 | 9.0 | 0.00 | 0.00 | 0.00 | 81 | 1019.2 |
| 20260904202505 | 56 | 267 | 3.0 | 9.0 | 0.00 | 0.00 | 0.00 | 81 | 1019.2 |
| 20260904202006 | 56 | 272 | 3.0 | 7.0 | 0.00 | 0.00 | 0.00 | 82 | 1019.1 |
| 20260904201505 | 56 | 270 | 2.0 | 4.0 | 0.00 | 0.00 | 0.00 | 82 | 1019.2 |
| 20260904201006 | 56 | 255 | 2.0 | 6.0 | 0.00 | 0.00 | 0.00 | 82 | 1019.2 |
| 20260904200006 | 56 | 270 | 3.0 | 7.0 | 0.00 | 0.00 | 0.00 | 81 | 1018.9 |
| 20260904195505 | 57 | 269 | 3.0 | 8.0 | 0.00 | 0.00 | 0.00 | 81 | 1018.8 |
| 20260904195006 | 57 | 267 | 4.0 | 8.0 | 0.00 | 0.00 | 0.00 | 80 | 1018.7 |
| 20260904194505 | 57 | 268 | 4.0 | 9.0 | 0.00 | 0.00 | 0.00 | 80 | 1018.6 |
| 20260904194006 | 57 | 267 | 4.0 | 9.0 | 0.00 | 0.00 | 0.00 | 80 | 1018.5 |
| 20260904193505 | 57 | 268 | 4.0 | 8.0 | 0.00 | 0.00 | 0.00 | 81 | 1018.5 |
| 20260904193006 | 57 | 268 | 4.0 | 8.0 | 0.00 | 0.00 | 0.00 | 81 | 1018.4 |
| 20260904192505 | 57 | 267 | 4.0 | 8.0 | 0.00 | 0.00 | 0.00 | 81 | 1018.3 |
| 20260904192007 | 57 | 267 | 4.0 | 9.0 | 0.00 | 0.00 | 0.00 | 80 | 1018.2 |
| 20260904191506 | 57 | 267 | 4.0 | 9.0 | 0.00 | 0.00 | 0.00 | 80 | 1018.1 |
| 20260904191007 | 58 | 269 | 3.0 | 8.0 | 0.00 | 0.00 | 0.00 | 81 | 1018.1 |
| 20260904190505 | 58 | 270 | 4.0 | 8.0 | 0.00 | 0.00 | 0.00 | 80 | 1018.2 |
| 20260904190006 | 58 | 270 | 3.0 | 8.0 | 0.00 | 0.00 | 0.00 | 80 | 1018.1 |
| 20260904185506 | 58 | 270 | 4.0 | 11.0 | 0.00 | 0.00 | 0.00 | 80 | 1018.1 |
| 20260904185007 | 58 | 271 | 5.0 | 11.0 | 0.00 | 0.00 | 0.00 | 80 | 1018.0 |
| 20260904184505 | 58 | 271 | 5.0 | 12.0 | 0.00 | 0.00 | 0.00 | 80 | 1017.8 |
| 20260904184005 | 58 | 269 | 4.0 | 12.0 | 0.00 | 0.00 | 0.00 | 80 | 1017.9 |
| 20260904183505 | 58 | 269 | 3.0 | 12.0 | 0.00 | 0.00 | 0.00 | 81 | 1017.8 |
| 20260904183006 | 58 | 268 | 3.0 | 12.0 | 0.00 | 0.00 | 0.00 | 80 | 1017.9 |
| 20260904182505 | 58 | 265 | 3.0 | 8.0 | 0.00 | 0.00 | 0.00 | 80 | 1017.8 |
| 20260904181006 | 58 | 269 | 4.0 | 9.0 | 0.00 | 0.00 | 0.00 | 79 | 1017.7 |
| 20260904180505 | 58 | 272 | 4.0 | 9.0 | 0.00 | 0.00 | 0.00 | 78 | 1017.6 |
| 20260904175505 | 60 | 278 | 3.0 | 11.0 | 0.00 | 0.00 | 0.00 | 77 | 1017.5 |
| 20260904174505 | 61 | 270 | 3.0 | 8.0 | 0.00 | 0.00 | 0.00 | 77 | 1017.4 |
| 20260904174007 | 61 | 270 | 3.0 | 7.0 | 0.00 | 0.00 | 0.00 | 76 | 1017.2 |
| 20260904173505 | 61 | 270 | 3.0 | 7.0 | 0.00 | 0.00 | 0.00 | 76 | 1017.2 |
| 20260904173005 | 61 | 271 | 3.0 | 7.0 | 0.00 | 0.00 | 0.00 | 76 | 1017.1 |
| 20260904172006 | 61 | 275 | 3.0 | 9.0 | 0.00 | 0.00 | 0.00 | 80 | 1017.2 |
| 20260904171505 | 61 | 273 | 4.0 | 11.0 | 0.00 | 0.00 | 0.00 | 80 | 1017.0 |
| 20260904171006 | 61 | 269 | 5.0 | 12.0 | 0.00 | 0.00 | 0.00 | 74 | 1017.0 |
| 20260904170505 | 62 | 270 | 6.0 | 12.0 | 0.00 | 0.00 | 0.00 | 71 | 1016.9 |
| 20260904165505 | 64 | 270 | 6.0 | 12.0 | 0.00 | 0.00 | 0.00 | 69 | 1016.8 |
| 20260904165006 | 64 | 269 | 6.0 | 13.0 | 0.00 | 0.00 | 0.00 | 69 | 1016.7 |
| 20260904164506 | 65 | 270 | 5.0 | 13.0 | 0.00 | 0.00 | 0.00 | 68 | 1016.8 |
| 20260904164006 | 65 | 276 | 5.0 | 12.0 | 0.00 | 0.00 | 0.00 | 69 | 1016.7 |
| 20260904163005 | 63 | 272 | 5.0 | 13.0 | 0.00 | 0.00 | 0.00 | 69 | 1016.6 |
| 20260904162006 | 64 | 273 | 6.0 | 15.0 | 0.00 | 0.00 | 0.00 | 68 | 1016.4 |
| 20260904161505 | 64 | 268 | 7.0 | 13.0 | 0.00 | 0.00 | 0.00 | 68 | 1016.4 |
| 20260904161005 | 64 | 267 | 7.0 | 14.0 | 0.00 | 0.00 | 0.00 | 67 | 1016.3 |
| 20260904160505 | 64 | 270 | 6.0 | 14.0 | 0.00 | 0.00 | 0.00 | 67 | 1016.3 |
| 20260904160006 | 63 | 270 | 7.0 | 15.0 | 0.00 | 0.00 | 0.00 | 70 | 1016.3 |
| 20260904155505 | 63 | 270 | 8.0 | 15.0 | 0.00 | 0.00 | 0.00 | 68 | 1016.2 |
| 20260904155007 | 64 | 268 | 8.0 | 16.0 | 0.00 | 0.00 | 0.00 | 66 | 1016.1 |
| 20260904154505 | 65 | 271 | 9.0 | 16.0 | 0.00 | 0.00 | 0.00 | 66 | 1016.0 |
| 20260904153505 | 65 | 271 | 9.0 | 17.0 | 0.00 | 0.00 | 0.00 | 66 | 1016.0 |
| 20260904153006 | 66 | 269 | 7.0 | 16.0 | 0.00 | 0.00 | 0.00 | 64 | 1015.9 |
| 20260904152505 | 66 | 268 | 7.0 | 16.0 | 0.00 | 0.00 | 0.00 | 67 | 1015.9 |
| 20260904152006 | 66 | 270 | 7.0 | 13.0 | 0.00 | 0.00 | 0.00 | 68 | 1015.9 |
| 20260904151505 | 65 | 270 | 6.0 | 12.0 | 0.00 | 0.00 | 0.00 | 70 | 1015.9 |
| 20260904150505 | 65 | 271 | 8.0 | 18.0 | 0.00 | 0.00 | 0.00 | 66 | 1015.8 |
| 20260904145006 | 66 | 270 | 4.0 | 12.0 | 0.00 | 0.00 | 0.00 | 72 | 1015.6 |
| 20260904144505 | 66 | 270 | 7.0 | 15.0 | 0.00 | 0.00 | 0.00 | 75 | 1015.6 |
| 20260904144007 | 65 | 270 | 8.0 | 15.0 | 0.00 | 0.00 | 0.00 | 74 | 1015.5 |
| 20260904143504 | 64 | 270 | 5.0 | 14.0 | 0.00 | 0.00 | 0.00 | 76 | 1015.3 |
| 20260904143005 | 63 | 268 | 4.0 | 14.0 | 0.00 | 0.00 | 0.00 | 80 | 1015.3 |
| 20260904142505 | 62 | 275 | 3.0 | 10.0 | 0.00 | 0.00 | 0.00 | 81 | 1015.3 |
| 20260904142006 | 62 | 278 | 3.0 | 10.0 | 0.00 | 0.00 | 0.00 | 83 | 1015.3 |
| 20260904141505 | 62 | 275 | 3.0 | 9.0 | 0.00 | 0.00 | 0.00 | 82 | 1015.3 |
| 20260904141006 | 62 | 276 | 3.0 | 9.0 | 0.00 | 0.00 | 0.00 | 81 | 1015.3 |
| 20260904140505 | 62 | 277 | 3.0 | 9.0 | 0.00 | 0.00 | 0.00 | 81 | 1015.2 |
| 20260904140005 | 62 | 275 | 6.0 | 15.0 | 0.00 | 0.00 | 0.00 | 80 | 1015.3 |
| 20260904135504 | 63 | 270 | 7.0 | 15.0 | 0.00 | 0.00 | 0.00 | 76 | 1015.3 |
| 20260904135005 | 64 | 270 | 7.0 | 14.0 | 0.00 | 0.00 | 0.00 | 74 | 1015.3 |
| 20260904134504 | 63 | 270 | 7.0 | 16.0 | 0.00 | 0.00 | 0.00 | 75 | 1015.3 |
| 20260904134005 | 62 | 267 | 6.0 | 16.0 | 0.00 | 0.00 | 0.00 | 75 | 1015.3 |
| 20260904133006 | 61 | 270 | 5.0 | 11.0 | 0.00 | 0.00 | 0.00 | 82 | 1015.5 |
| 20260904132505 | 60 | 270 | 3.0 | 11.0 | 0.00 | 0.00 | 0.00 | 83 | 1015.4 |
| 20260904132007 | 60 | 270 | 3.0 | 7.0 | 0.00 | 0.00 | 0.00 | 85 | 1015.3 |
| 20260904131505 | 59 | 266 | 3.0 | 10.0 | 0.00 | 0.00 | 0.00 | 85 | 1015.3 |
| 20260904131005 | 59 | 272 | 3.0 | 10.0 | 0.00 | 0.00 | 0.00 | 84 | 1015.5 |
| 20260904130505 | 59 | 284 | 3.0 | 9.0 | 0.00 | 0.00 | 0.00 | 84 | 1015.3 |
| 20260904130006 | 60 | 285 | 4.0 | 12.0 | 0.00 | 0.00 | 0.00 | 81 | 1015.4 |
| 20260904125505 | 61 | 274 | 6.0 | 14.0 | 0.00 | 0.00 | 0.00 | 78 | 1015.3 |
| 20260904125005 | 61 | 270 | 7.0 | 14.0 | 0.00 | 0.00 | 0.00 | 75 | 1015.0 |
| 20260904124505 | 62 | 270 | 7.0 | 13.0 | 0.00 | 0.00 | 0.00 | 74 | 1014.9 |
| 20260904124005 | 62 | 273 | 7.0 | 15.0 | 0.00 | 0.00 | 0.00 | 73 | 1014.9 |
| 20260904123005 | 62 | 270 | 7.0 | 16.0 | 0.00 | 0.00 | 0.00 | 74 | 1014.6 |
| 20260904122504 | 63 | 275 | 6.0 | 13.0 | 0.00 | 0.00 | 0.00 | 74 | 1014.5 |
| 20260904121504 | 62 | 271 | 6.0 | 15.0 | 0.00 | 0.00 | 0.00 | 76 | 1014.4 |
| 20260904121005 | 62 | 271 | 6.0 | 15.0 | 0.00 | 0.00 | 0.00 | 75 | 1014.3 |
| 20260904120504 | 62 | 275 | 5.0 | 11.0 | 0.00 | 0.00 | 0.00 | 77 | 1014.4 |
| 20260904120006 | 62 | 273 | 6.0 | 16.0 | 0.00 | 0.00 | 0.00 | 77 | 1014.3 |
| 20260904115005 | 61 | 273 | 6.0 | 14.0 | 0.00 | 0.00 | 0.00 | 77 | 1014.4 |
| 20260904114504 | 61 | 271 | 6.0 | 15.0 | 0.00 | 0.00 | 0.00 | 76 | 1014.3 |
| 20260904114007 | 62 | 271 | 6.0 | 15.0 | 0.00 | 0.00 | 0.00 | 76 | 1014.2 |
| 20260904113504 | 62 | 273 | 5.0 | 10.0 | 0.00 | 0.00 | 0.00 | 77 | 1014.1 |
| 20260904112505 | 62 | 264 | 6.0 | 12.0 | 0.00 | 0.00 | 0.00 | 78 | 1014.1 |
| 20260904112006 | 61 | 267 | 5.0 | 12.0 | 0.00 | 0.00 | 0.00 | 79 | 1014.1 |
| 20260904111006 | 60 | 266 | 5.0 | 12.0 | 0.00 | 0.00 | 0.00 | 80 | 1014.2 |
| 20260904110005 | 60 | 268 | 4.0 | 10.0 | 0.00 | 0.00 | 0.00 | 81 | 1014.3 |
| 20260904105505 | 60 | 270 | 6.0 | 13.0 | 0.00 | 0.00 | 0.00 | 80 | 1014.2 |
| 20260904105005 | 60 | 271 | 6.0 | 13.0 | 0.00 | 0.00 | 0.00 | 78 | 1014.1 |
| 20260904104505 | 60 | 270 | 4.0 | 13.0 | 0.00 | 0.00 | 0.00 | 78 | 1014.1 |
| 20260904104005 | 61 | 270 | 4.0 | 9.0 | 0.00 | 0.00 | 0.00 | 80 | 1014.0 |
| 20260904103505 | 60 | 266 | 6.0 | 14.0 | 0.00 | 0.00 | 0.00 | 81 | 1013.8 |
| 20260904103005 | 60 | 265 | 6.0 | 14.0 | 0.00 | 0.00 | 0.00 | 79 | 1013.5 |
| 20260904102504 | 60 | 269 | 4.0 | 12.0 | 0.00 | 0.00 | 0.00 | 79 | 1013.5 |
| 20260904101504 | 60 | 262 | 6.0 | 14.0 | 0.00 | 0.00 | 0.00 | 78 | 1013.3 |
| 20260904101006 | 60 | 267 | 5.0 | 15.0 | 0.00 | 0.00 | 0.00 | 81 | 1013.3 |
| 20260904100504 | 60 | 270 | 6.0 | 15.0 | 0.00 | 0.00 | 0.00 | 81 | 1013.3 |
| 20260904100005 | 59 | 270 | 6.0 | 13.0 | 0.00 | 0.00 | 0.00 | 82 | 1013.3 |
| 20260904095505 | 59 | 270 | 6.0 | 13.0 | 0.00 | 0.00 | 0.00 | 82 | 1013.1 |
| 20260904095005 | 59 | 268 | 6.0 | 13.0 | 0.00 | 0.00 | 0.00 | 83 | 1013.1 |
| 20260904094504 | 59 | 268 | 7.0 | 14.0 | 0.00 | 0.00 | 0.00 | 83 | 1013.0 |
| 20260904093505 | 58 | 270 | 6.0 | 13.0 | 0.00 | 0.00 | 0.00 | 83 | 1013.1 |
| 20260904093005 | 58 | 270 | 7.0 | 18.0 | 0.00 | 0.00 | 0.00 | 82 | 1012.9 |
| 20260904091505 | 58 | 269 | 7.0 | 16.0 | 0.00 | 0.00 | 0.00 | 84 | 1012.7 |
| 20260904091005 | 58 | 266 | 7.0 | 13.0 | 0.00 | 0.00 | 0.00 | 84 | 1012.6 |
| 20260904090504 | 58 | 268 | 7.0 | 13.0 | 0.00 | 0.00 | 0.00 | 84 | 1012.7 |
| 20260904090009 | 58 | 270 | 6.0 | 17.0 | 0.00 | 0.00 | 0.00 | 84 | 1012.7 |
| 20260904085504 | 57 | 268 | 6.0 | 17.0 | 0.00 | 0.00 | 0.00 | 84 | 1012.7 |
| 20260904084005 | 57 | 267 | 6.0 | 14.0 | 0.00 | 0.00 | 0.00 | 84 | 1012.5 |
| 20260904083505 | 57 | 270 | 5.0 | 14.0 | 0.00 | 0.00 | 0.00 | 84 | 1012.4 |
| 20260904083005 | 57 | 273 | 5.0 | 12.0 | 0.00 | 0.00 | 0.00 | 85 | 1012.3 |
| 20260904082505 | 57 | 270 | 5.0 | 11.0 | 0.00 | 0.00 | 0.00 | 85 | 1012.3 |
| 20260904082005 | 57 | 269 | 5.0 | 12.0 | 0.00 | 0.00 | 0.00 | 85 | 1012.3 |
| 20260904081505 | 57 | 265 | 6.0 | 13.0 | 0.00 | 0.00 | 0.00 | 85 | 1012.2 |
| 20260904081005 | 57 | 263 | 6.0 | 14.0 | 0.00 | 0.00 | 0.00 | 85 | 1012.1 |
| 20260904080504 | 57 | 266 | 5.0 | 14.0 | 0.00 | 0.00 | 0.00 | 85 | 1012.0 |
| 20260904080005 | 57 | 267 | 5.0 | 12.0 | 0.00 | 0.00 | 0.00 | 86 | 1011.9 |
| 20260904075504 | 56 | 263 | 5.0 | 12.0 | 0.00 | 0.00 | 0.00 | 86 | 1011.8 |
| 20260904074504 | 56 | 263 | 4.0 | 12.0 | 0.00 | 0.00 | 0.00 | 87 | 1011.7 |
| 20260904074006 | 56 | 264 | 5.0 | 12.0 | 0.00 | 0.00 | 0.00 | 87 | 1011.7 |
| 20260904073505 | 56 | 272 | 5.0 | 11.0 | 0.00 | 0.00 | 0.00 | 87 | 1011.8 |
| 20260904073005 | 56 | 270 | 4.0 | 11.0 | 0.00 | 0.00 | 0.00 | 88 | 1011.7 |
| 20260904072504 | 56 | 267 | 4.0 | 11.0 | 0.00 | 0.00 | 0.00 | 88 | 1011.6 |
| 20260904072005 | 56 | 261 | 4.0 | 11.0 | 0.00 | 0.00 | 0.00 | 88 | 1011.5 |
| 20260904071504 | 56 | 245 | 3.0 | 7.0 | 0.00 | 0.00 | 0.00 | 88 | 1011.4 |
| 20260904071005 | 56 | 234 | 2.0 | 7.0 | 0.00 | 0.00 | 0.00 | 89 | 1011.3 |
| 20260904070006 | 56 | 262 | 3.0 | 9.0 | 0.00 | 0.00 | 0.00 | 89 | 1011.4 |
| 20260904065504 | 56 | 258 | 3.0 | 9.0 | 0.00 | 0.00 | 0.00 | 89 | 1011.4 |
| 20260904065005 | 55 | 250 | 4.0 | 9.0 | 0.00 | 0.00 | 0.00 | 89 | 1011.2 |
| 20260904064504 | 55 | 259 | 3.0 | 9.0 | 0.00 | 0.00 | 0.00 | 89 | 1011.1 |
| 20260904063504 | 55 | 268 | 3.0 | 9.0 | 0.00 | 0.00 | 0.00 | 90 | 1011.2 |
| 20260904063006 | 55 | 266 | 3.0 | 9.0 | 0.00 | 0.00 | 0.00 | 89 | 1011.0 |
| 20260904062004 | 55 | 270 | 4.0 | 9.0 | 0.00 | 0.00 | 0.00 | 89 | 1011.0 |
| 20260904061504 | 55 | 265 | 5.0 | 10.0 | 0.00 | 0.00 | 0.00 | 89 | 1010.9 |
| 20260904061005 | 55 | 265 | 5.0 | 10.0 | 0.00 | 0.00 | 0.00 | 89 | 1011.0 |
| 20260904060504 | 55 | 268 | 5.0 | 14.0 | 0.00 | 0.00 | 0.00 | 89 | 1011.0 |
| 20260904060005 | 55 | 270 | 5.0 | 14.0 | 0.00 | 0.00 | 0.00 | 89 | 1010.9 |
| 20260904055504 | 55 | 270 | 5.0 | 14.0 | 0.00 | 0.00 | 0.00 | 89 | 1010.7 |
| 20260904055005 | 55 | 270 | 3.0 | 8.0 | 0.00 | 0.00 | 0.00 | 89 | 1010.5 |
| 20260904054005 | 55 | 270 | 4.0 | 10.0 | 0.00 | 0.00 | 0.00 | 89 | 1010.7 |
| 20260904053504 | 55 | 268 | 4.0 | 11.0 | 0.00 | 0.00 | 0.00 | 89 | 1010.6 |
| 20260904053005 | 55 | 262 | 3.0 | 11.0 | 0.00 | 0.00 | 0.00 | 89 | 1010.6 |
| 20260904052504 | 55 | 256 | 2.0 | 8.0 | 0.00 | 0.00 | 0.00 | 90 | 1010.5 |
| 20260904052006 | 55 | 246 | 2.0 | 8.0 | 0.00 | 0.00 | 0.00 | 90 | 1010.4 |
| 20260904051504 | 55 | 243 | 2.0 | 7.0 | 0.00 | 0.00 | 0.00 | 91 | 1010.3 |
| 20260904051005 | 55 | 250 | 2.0 | 5.0 | 0.00 | 0.00 | 0.00 | 91 | 1010.4 |
| 20260904050504 | 55 | 239 | 2.0 | 4.0 | 0.00 | 0.00 | 0.00 | 91 | 1010.4 |
| 20260904050006 | 55 | 223 | 2.0 | 4.0 | 0.00 | 0.00 | 0.00 | 91 | 1010.3 |
| 20260904045504 | 55 | 223 | 2.0 | 4.0 | 0.00 | 0.00 | 0.00 | 91 | 1010.3 |
| 20260904045005 | 55 | 234 | 2.0 | 6.0 | 0.00 | 0.00 | 0.00 | 91 | 1010.3 |
| 20260904044504 | 55 | 237 | 2.0 | 6.0 | 0.00 | 0.00 | 0.00 | 91 | 1010.4 |
| 20260904044005 | 55 | 231 | 2.0 | 6.0 | 0.00 | 0.00 | 0.00 | 91 | 1010.3 |
| 20260904043504 | 55 | 229 | 2.0 | 6.0 | 0.00 | 0.00 | 0.00 | 91 | 1010.2 |